#timestamp,LO_Frequency,Hit,StdDev 
1576551615.6,286046998.8,N
1576551635.4,286046997.9,N
1576551655.3,286046997.2,N
1576551675.1,286046998.0,N
1576551695.8,286046995.7,Y
1576551715.7,286046996.0,P
1576551735.5,286046995.4,N
1576551755.4,286046995.1,N
1576551775.2,286046995.8,N
1576551795.0,286046996.1,N
1576551795.9,286046996.1,N
1576551815.8,286046998.0,N
1576551835.6,286046996.0,N
1576551855.4,286046996.7,N
1576551875.3,286046995.4,Y
1576551895.1,286046999.3,P
1576551915.9,286046998.5,N
1576551935.7,286046998.5,N
1576551955.5,286047001.2,N
1576551975.4,286047001.0,N
1576551995.2,286047002.3,N
1576552015.1,286046999.7,N
1576552016.0,286046999.7,N
1576552035.8,286046998.5,N
1576552055.6,286046999.3,N
1576552075.5,286046996.5,N
1576552095.3,286047000.9,N
1576552115.1,286046999.8,N
1576552135.9,286047002.8,N
1576552155.7,286047000.0,N
1576552175.6,286047001.0,N
1576552195.4,286046999.7,N
1576552215.2,286047000.6,N
1576552235.1,286047003.9,N
1576552236.0,286047003.9,N
1576552255.8,286047000.3,N
1576552275.6,286047000.8,N
1576552295.5,286047001.0,N
1576552315.3,286047000.9,N
1576552335.2,286046998.9,N
1576552355.9,286046998.3,N
1576552375.7,286046996.5,N
1576552395.6,286046997.0,N
1576552415.4,286046997.4,N
1576552435.2,286046999.5,N
1576552455.1,286046999.6,N
1576552456.0,286046999.6,N
1576552475.8,286046996.7,N
1576552495.7,286046998.4,N
1576552515.5,286046999.6,N
1576552535.3,286046996.5,N
1576552555.2,286046996.9,N
1576552575.0,286046999.0,N
1576552575.9,286046999.0,N
1576552595.7,286046998.8,N
1576552615.6,286046998.4,N
1576552635.4,286046998.7,N
1576552655.3,286046999.1,N
1576552675.1,286046996.6,N
1576552676.0,286046996.6,N
1576552695.8,286046996.7,N
1576552715.7,286046999.4,N
1576552735.5,286046999.4,N
1576552755.3,286046998.8,N
1576552775.2,286046997.0,N
1576552795.0,286046998.7,N
1576552795.9,286046998.7,N
1576552815.8,286046999.0,N
1576552835.6,286046999.4,N
1576552855.4,286046998.8,N
1576552875.3,286046998.3,N
1576552895.1,286047001.0,N
1576552915.8,286046998.1,N
1576552935.7,286046998.8,N
1576552955.5,286047000.3,N
1576552975.4,286047000.2,N
1576552995.2,286046998.5,N
1576553015.0,286046998.8,N
1576553015.9,286046998.8,N
1576553035.8,286047000.8,N
1576553055.6,286046999.8,N
1576553075.4,286047001.8,N
1576553095.3,286047002.6,N
1576553115.1,286047000.5,N
1576553135.9,286047000.1,N
1576553155.7,286047002.7,N
1576553175.5,286046998.1,N
1576553195.4,286046999.7,N
1576553215.2,286046999.8,N
1576553235.0,286047001.1,N
1576553236.0,286047001.1,N
1576553255.8,286047000.1,N
1576553275.6,286047000.6,N
1576553295.5,286047000.9,N
1576553315.3,286047001.0,N
1576553335.1,286047000.5,N
1576553355.9,286047002.6,N
1576553375.7,286047001.9,N
1576553395.5,286047003.2,N
1576553415.4,286047005.8,Y
1576553435.2,286047003.8,P
1576553455.1,286047001.3,N
1576553456.0,286047001.3,N
1576553475.8,286047001.4,N
1576553495.7,286047004.0,Y
1576553515.5,286047001.6,P
1576553535.3,286047000.1,P
1576553555.2,286047001.2,N
1576553575.9,286047001.0,N
1576553595.7,286046999.8,N
1576553615.6,286046999.8,N
1576553635.4,286047000.6,N
1576553655.3,286047000.5,N
1576553675.1,286047000.6,N
1576553676.0,286047000.6,N
1576553695.8,286047000.7,N
1576553715.7,286047000.5,N
1576553735.5,286047001.0,N
1576553755.3,286047001.0,N
1576553775.2,286047001.2,N
1576553795.0,286047001.0,N
1576553795.9,286047001.0,N
1576553815.8,286047002.5,Y
1576553835.6,286047004.2,P
1576553855.4,286047001.7,N
1576553875.3,286047001.6,N
1576553895.1,286046999.8,N
1576553915.8,286047002.2,N
1576553935.7,286047002.0,N
1576553955.5,286047002.4,N
1576553975.4,286047002.5,N
1576553995.2,286046999.8,N
1576554015.0,286046999.9,N
1576554015.9,286046999.9,N
1576554035.8,286046998.6,N
1576554055.6,286047000.6,N
1576554075.4,286047000.3,N
1576554095.3,286047000.6,N
1576554115.1,286046998.3,N
1576554135.9,286046996.7,N
1576554155.7,286046997.3,N
1576554175.5,286046997.4,N
1576554195.4,286046995.3,N
1576554215.2,286046997.2,N
1576554235.1,286046997.5,N
1576554236.0,286046997.5,N
1576554255.8,286046997.3,N
1576554275.6,286046996.5,N
1576554295.5,286046997.7,N
1576554315.3,286046996.5,N
1576554335.1,286046997.0,N
1576554355.9,286046998.7,N
1576554375.7,286046999.1,N
1576554395.6,286046996.8,N
1576554415.4,286046997.1,N
1576554435.2,286046997.5,N
1576554455.1,286046997.6,N
1576554456.0,286046997.6,N
1576554475.8,286046997.7,N
1576554495.7,286046997.8,N
1576554515.5,286046997.1,N
1576554535.3,286046999.2,N
1576554555.2,286046996.8,N
1576554575.0,286046997.7,N
1576554575.9,286046997.7,N
1576554595.7,286046996.5,N
1576554615.6,286046999.0,N
1576554635.4,286046996.9,Y
1576554655.3,286047000.4,P
1576554675.1,286047002.3,N
1576554695.8,286047002.3,N
1576554715.7,286047001.3,N
1576554735.5,286046999.8,N
1576554755.4,286046998.3,N
1576554775.2,286046998.2,N
1576554795.0,286046998.9,N
1576554795.9,286046998.9,N
1576554815.8,286046999.5,N
1576554835.6,286046996.6,N
1576554855.4,286046996.5,N
1576554875.3,286046998.9,N
1576554895.1,286046998.8,N
1576554915.9,286046999.5,N
1576554935.7,286046999.5,N
1576554955.5,286046999.6,N
1576554975.4,286046996.9,N
1576554995.2,286046997.2,N
1576555045.1,286046996.6,E
1576555055.9,286047000.6,N
1576555075.7,286047001.7,P
1576555095.6,286047004.0,P
1576555115.4,286047003.9,N
1576555135.2,286047002.1,N
1576555155.1,286047004.2,Y
1576555156.0,286047004.2,P
1576555175.8,286047000.6,N
1576555195.7,286047000.6,N
